LB9CG Weather Reports


Display with metric or nautical units.
time (UTC)temp
F
wind
direction
speed
MPH
gust
MPH
rain 1hr
in
rain 24hr
in
rain mn
in
humidity
%
barometer
mb
20260510184017 43 270 2.0 6.0 0.00 0.00 0.00 79 1004.6
20260510183057 43 180 1.0 4.0 0.00 0.00 0.00 80 1004.5
20260510182037 43 135 2.0 5.0 0.00 0.00 0.00 80 1004.5
20260510181017 43 135 2.0 7.0 0.00 0.00 0.00 80 1004.6
20260510180017 43 135 3.0 8.0 0.00 0.00 0.00 79 1004.6
20260510175037 43 135 2.0 7.0 0.00 0.00 0.00 79 1004.7
20260510174017 43 135 1.0 6.0 0.00 0.00 0.00 80 1004.8
20260510173017 43 225 1.0 3.0 0.00 0.00 0.00 80 1004.8
20260510172017 43 0.0 3.0 0.00 0.00 0.00 80 1004.8
20260510171017 43 248 2.0 5.0 0.00 0.00 0.00 78 1004.9
20260510170017 43 180 2.0 6.0 0.00 0.00 0.00 75 1005.0
20260510165017 44 158 1.0 5.0 0.00 0.00 0.00 74 1005.1
20260510164017 45 158 2.0 6.0 0.00 0.00 0.00 76 1005.1
20260510163017 44 248 1.0 4.0 0.00 0.00 0.00 76 1005.2
20260510162017 44 225 1.0 4.0 0.00 0.00 0.00 76 1005.3
20260510161037 44 158 2.0 5.0 0.00 0.00 0.00 77 1005.4
20260510160017 44 225 1.0 8.0 0.00 0.00 0.00 77 1005.5
20260510155017 44 248 3.0 10.0 0.00 0.00 0.00 75 1005.5
20260510154017 44 158 2.0 7.0 0.00 0.00 0.00 77 1005.6
20260510153037 44 225 2.0 6.0 0.00 0.00 0.00 77 1005.7
20260510152016 44 135 3.0 8.0 0.00 0.00 0.00 76 1005.7
20260510151017 45 158 2.0 9.0 0.00 0.00 0.00 74 1005.8
20260510150016 45 135 5.0 14.0 0.00 0.00 0.00 75 1005.8
20260510145017 45 248 2.0 5.0 0.00 0.00 0.00 74 1005.9
20260510144057 45 225 1.0 4.0 0.00 0.00 0.00 74 1005.9
20260510143016 45 225 4.0 11.0 0.00 0.00 0.00 72 1005.9
20260510142016 46 225 3.0 7.0 0.00 0.00 0.00 71 1006.0
20260510141017 47 225 4.0 15.0 0.00 0.00 0.00 71 1006.0
20260510140016 47 158 5.0 11.0 0.00 0.00 0.00 71 1006.0
20260510135016 46 180 3.0 12.0 0.00 0.00 0.00 74 1006.2
20260510134016 46 270 5.0 14.0 0.00 0.00 0.00 72 1006.1
20260510133016 46 225 5.0 9.0 0.00 0.00 0.00 72 1006.2
20260510132018 46 225 3.0 9.0 0.00 0.00 0.00 73 1006.2
20260510131017 46 248 5.0 13.0 0.00 0.00 0.00 73 1006.2
20260510130036 47 225 5.0 15.0 0.00 0.00 0.00 71 1006.3
20260510125016 48 225 3.0 7.0 0.00 0.00 0.00 69 1006.3
20260510124046 47 270 4.0 9.0 0.00 0.00 0.00 72 1006.3
20260510123016 48 158 4.0 12.0 0.00 0.00 0.00 70 1006.2
20260510122036 48 135 5.0 13.0 0.00 0.00 0.00 71 1006.4
20260510121016 47 135 6.0 16.0 0.00 0.00 0.00 71 1006.4
20260510120016 47 135 6.0 24.0 0.00 0.00 0.00 71 1006.5
20260510115016 46 135 7.0 18.0 0.00 0.00 0.00 70 1006.5
20260510114016 46 135 6.0 15.0 0.00 0.00 0.00 70 1006.6
20260510113016 46 158 7.0 17.0 0.00 0.00 0.00 73 1006.6
20260510112016 46 135 6.0 18.0 0.00 0.00 0.00 74 1006.8
20260510111016 46 248 5.0 13.0 0.00 0.00 0.00 74 1006.8
20260510110016 46 158 5.0 18.0 0.00 0.00 0.00 76 1006.8
20260510105016 46 135 6.0 15.0 0.00 0.00 0.00 74 1006.8
20260510104016 45 135 8.0 18.0 0.00 0.00 0.00 74 1006.9
20260510103036 45 270 4.0 12.0 0.00 0.00 0.00 80 1007.0
20260510102036 45 135 6.0 13.0 0.00 0.00 0.00 79 1006.9
20260510101016 44 135 9.0 19.0 0.00 0.00 0.00 81 1007.0
20260510100036 44 158 7.0 19.0 0.00 0.00 0.00 77 1007.2
20260510095016 46 135 4.0 12.0 0.00 0.00 0.00 77 1007.1
20260510094036 45 135 6.0 16.0 0.00 0.00 0.00 79 1007.2
20260510093016 45 135 7.0 18.0 0.00 0.00 0.00 78 1007.0
20260510092016 45 135 5.0 10.0 0.00 0.00 0.00 82 1007.1
20260510091016 45 158 5.0 11.0 0.00 0.00 0.00 85 1007.2
20260510090036 43 158 4.0 13.0 0.00 0.00 0.00 85 1007.3
20260510085016 44 135 5.0 14.0 0.00 0.00 0.00 83 1007.4
20260510084016 44 135 4.0 8.0 0.00 0.00 0.00 85 1007.3
20260510083056 43 225 5.0 14.0 0.00 0.00 0.00 82 1007.3
20260510082016 45 135 4.0 11.0 0.00 0.00 0.00 84 1007.3
20260510081016 43 158 4.0 13.0 0.00 0.00 0.00 85 1007.4
20260510080016 43 248 3.0 8.0 0.00 0.00 0.00 87 1007.5
20260510075036 43 158 4.0 10.0 0.00 0.00 0.00 87 1007.5
20260510074016 43 135 4.0 10.0 0.00 0.00 0.00 87 1007.4
20260510073016 44 135 4.0 10.0 0.00 0.00 0.00 90 1007.6
20260510072016 41 180 4.0 13.0 0.00 0.00 0.00 90 1007.7
20260510071016 41 225 4.0 11.0 0.00 0.00 0.00 89 1007.8
20260510070016 42 203 3.0 9.0 0.00 0.00 0.00 90 1007.7
20260510065016 41 158 4.0 10.0 0.00 0.00 0.00 91 1007.7
20260510064016 41 158 2.0 6.0 0.00 0.00 0.00 92 1007.8
20260510063016 40 180 3.0 8.0 0.00 0.00 0.00 92 1007.8
20260510062016 41 225 3.0 7.0 0.00 0.00 0.00 91 1007.8
20260510061016 41 158 5.0 11.0 0.00 0.00 0.00 91 1007.8
20260510060015 41 158 2.0 7.0 0.00 0.00 0.00 91 1007.7
20260510055015 41 225 3.0 8.0 0.00 0.00 0.00 92 1007.8
20260510054015 40 248 2.0 9.0 0.00 0.00 0.00 92 1007.8
20260510053015 40 225 3.0 7.0 0.00 0.00 0.00 92 1007.9
20260510052015 40 225 3.0 8.0 0.00 0.00 0.00 91 1007.9
20260510051016 41 135 2.0 3.0 0.00 0.00 0.00 91 1007.9
20260510050016 41 225 4.0 9.0 0.00 0.00 0.00 90 1007.9
20260510045015 41 135 3.0 9.0 0.00 0.00 0.00 91 1008.0
20260510044015 41 225 3.0 8.0 0.00 0.00 0.00 91 1008.0
20260510043015 41 225 3.0 9.0 0.00 0.00 0.00 91 1008.0
20260510042036 41 180 3.0 9.0 0.00 0.00 0.00 90 1008.1
20260510041015 41 180 3.0 9.0 0.00 0.00 0.00 91 1008.1
20260510040035 41 225 3.0 11.0 0.00 0.00 0.00 91 1008.2
20260510035015 41 158 2.0 6.0 0.00 0.00 0.00 91 1008.3
20260510034015 41 158 4.0 10.0 0.00 0.00 0.00 91 1008.4
20260510033015 41 225 3.0 9.0 0.00 0.00 0.00 91 1008.5
20260510032015 41 135 5.0 14.0 0.00 0.00 0.00 91 1008.6
20260510031015 40 158 3.0 9.0 0.00 0.00 0.00 91 1008.7
20260510030017 40 135 4.0 14.0 0.00 0.00 0.00 91 1008.8
20260510025018 40 158 4.0 10.0 0.00 0.00 0.00 91 1009.0
20260510024017 40 135 4.0 10.0 0.00 0.00 0.00 91 1008.9
20260510023017 40 135 4.0 8.0 0.00 0.00 0.00 90 1009.0
20260510022017 41 180 4.0 14.0 0.00 0.00 0.00 90 1009.1
20260510021017 41 135 5.0 9.0 0.00 0.00 0.00 89 1009.1
20260510020017 41 225 4.0 13.0 0.00 0.00 0.00 89 1009.2
20260510015015 41 225 4.0 11.0 0.00 0.00 0.00 88 1009.1
20260510014017 41 225 3.0 10.0 0.00 0.00 0.00 87 1009.4
20260510013017 42 135 4.0 11.0 0.00 0.00 0.00 87 1009.4
20260510012017 42 135 3.0 8.0 0.00 0.00 0.00 86 1009.6
20260510011017 42 225 3.0 7.0 0.00 0.00 0.00 86 1009.7
20260510010017 41 203 2.0 7.0 0.00 0.00 0.00 86 1009.8
20260510005017 41 225 3.0 9.0 0.00 0.00 0.00 87 1009.9
20260510004017 42 135 5.0 13.0 0.00 0.00 0.00 85 1010.0
20260510003037 42 158 3.0 10.0 0.00 0.00 0.00 83 1009.8
20260510002017 43 135 5.0 12.0 0.00 0.00 0.00 82 1010.0
20260510001017 43 135 4.0 11.0 0.00 0.00 0.00 81 1010.1
20260510000017 43 135 3.0 10.0 0.00 0.00 0.00 82 1010.2
20260509235017 43 158 3.0 10.0 0.00 0.00 0.00 82 1010.4
20260509234037 43 180 3.0 9.0 0.00 0.00 0.00 81 1010.4
20260509233017 43 158 4.0 10.0 0.00 0.00 0.00 81 1010.5
20260509232017 43 180 3.0 11.0 0.00 0.00 0.00 81 1010.7
20260509231037 43 158 4.0 10.0 0.00 0.00 0.00 81 1010.8
20260509230017 43 158 2.0 6.0 0.00 0.00 0.00 83 1010.8
20260509225017 43 158 2.0 8.0 0.00 0.00 0.00 83 1010.9
20260509224017 43 135 3.0 7.0 0.00 0.00 0.00 83 1011.1
20260509223017 43 135 2.0 6.0 0.00 0.00 0.00 83 1011.2
20260509222017 43 203 3.0 12.0 0.00 0.00 0.00 83 1011.3
20260509221017 43 225 4.0 10.0 0.00 0.00 0.00 83 1011.3
20260509220017 43 158 2.0 8.0 0.00 0.00 0.00 84 1011.3
20260509215057 43 135 2.0 6.0 0.00 0.00 0.00 84 1011.5
20260509214037 43 225 2.0 5.0 0.00 0.00 0.00 84 1011.6
20260509213017 43 90 1.0 4.0 0.00 0.00 0.00 84 1011.5
20260509212017 43 135 2.0 6.0 0.00 0.00 0.00 83 1011.6
20260509211017 43 158 2.0 5.0 0.00 0.00 0.00 84 1011.6
20260509210017 43 135 2.0 5.0 0.00 0.00 0.00 84 1011.8
20260509205017 43 158 2.0 5.0 0.00 0.00 0.00 84 1012.0
20260509204017 43 135 2.0 5.0 0.00 0.00 0.00 84 1011.9
20260509203017 42 225 1.0 3.0 0.00 0.00 0.00 85 1012.0
20260509202037 42 225 1.0 4.0 0.00 0.00 0.00 85 1012.1
20260509201037 43 158 2.0 6.0 0.00 0.00 0.00 84 1012.1
20260509200017 43 225 1.0 6.0 0.00 0.00 0.00 84 1012.1
20260509195017 43 158 3.0 7.0 0.00 0.00 0.00 84 1012.1
20260509194037 43 135 3.0 7.0 0.00 0.00 0.00 84 1012.2
20260509193017 43 158 1.0 4.0 0.00 0.00 0.00 83 1012.4
20260509192017 43 158 2.0 5.0 0.00 0.00 0.00 83 1012.4
20260509191017 43 135 2.0 6.0 0.00 0.00 0.00 84 1012.5
20260509190017 43 135 2.0 6.0 0.00 0.00 0.00 85 1012.5
20260509185037 43 135 2.0 5.0 0.00 0.00 0.00 86 1012.5